STARLINK-32496, 62051

Orbit data source: Space-Track

STARLINK-32496, 62051 is a payload satellite owned by SpaceX/Seattle (US) in LEO that was launched on Thu, 21 Nov 2024 UTC via an FALCON 9 launch vehicle from the Air Force Eastern Test Range (AFETR). Payloads include a variety of satellites, spacecraft, and rockets equipped with specific instruments for various scientific and technological missions. These include communications satellites like Starlink; space stations such as the ISS; scientific satellites like the Hubble; Earth observation satellites from companies like Planet Labs, Umbra, and HawkEye 360; GPS; miniature CubeSats for education and research; and military/defense satellites.

Loading next visibility...
STARLINK-32496 details
Identifier
62051, 2024-216V
Orbit
LEO
Last TLE update6 hours ago
Origin
Flag of USSpaceX/Seattle (US)
ManufacturerSpaceX/Seattle
MissionOperational spacecraft
Bus & MotorSTARLINK V2M, Unknown motor
Mass730 kg wet, ~700 kg dry
Launch date (UTC)
2024-11-21 (1 month ago)
Launch vehicle
FALCON 9
Launch site
Air Force Eastern Test Range (AFETR)
Object type
Payload
Rocket body
Debris
Shape & HBRUnknown
Radar Cross SectionLarge (>1 m²)

Expand to show TLE details & history

TLE from 6 hours ago
0 STARLINK-32496
1 62051U 24216V   24361.16668981  .00092642  00000-0  22004-2 0  9993
2 62051  42.9995 233.5417 0001754 272.3367 329.0240 15.40669238  5410
Epoch: 2024-12-26T04:00Z
Definitive object data (Epoch: 2024-12-26T04:00:01.999Z)
Latitude-36.93608°
Longitude-48.31837°
Altitude453.886 km
Speed7.641 km/s
True Right ascension07h 07m 21s
True Declination-36° 45' 49"
Sunlit
Object was in full shadow at TLE epoch
Visualization TLE readout
Latitude-16.24492°
Longitude-84.96901°
Altitude446.85 km
Speed7.645 km/s
Apparent Right ascension01h 48m 36s
Apparent Declination-41° 19' 24"
Sunlit
Object is in full shadow
Visualization observer readout
Local Sidereal Time09:24:53
Azimuth245.678° WSW
Elevation-41.193°
Doppler factor1
Orbital elements
Apogee altitude447.286 km
Perigee altitude444.892 km
Semi-major axis6,824.226 km
Eccentricity0.0001754
Inclination42.9995°
RAAN233.5417°
Arg. of periapsis272.3367°
True anomaly329.01365°
Mean anomaly329.024°
Eccentric anomaly329.01883°
Mean motion3.85002 °/min
BSTAR0.0022004
Orbital period93.51 mins
Loading maneuver chart data...
Loading historical data...
Loading historical data...
Loading historical data...
Loading historical data...
Loading historical data...
Loading historical data...
Loading historical data...

STARLINK-32496 Visibility forecast

Observer location: undefined°, undefined

Span
Click to sort rows by Start time (UTC) header in descending order
Start Az.
Max El. time (UTC)
Max El. Az.
Max El.
End time (UTC)
End Az.
5 mins2024-12-26 18:42:45.802Z201.114° SSW2024-12-26 18:44:45.802Z162.485° S22.964°2024-12-26 18:47:45.802Z94.084° ESE
5 mins2024-12-26 20:20:45.802Z258.164° W2024-12-26 20:22:45.802Z284.847° WNW43.027°2024-12-26 20:25:45.802Z69.831° E
5 mins2024-12-26 21:59:45.802Z298.986° NW2024-12-26 22:01:45.802Z25.999° NE35.924°2024-12-26 22:04:45.802Z78.022° E
5 mins2024-12-26 23:37:45.802Z287.764° WNW2024-12-26 23:39:45.802Z119.041° SE44.661°2024-12-26 23:42:45.802Z109.916° ESE
4 mins2024-12-27 01:15:45.802Z249.731° W2024-12-27 01:17:45.802Z204.365° SW19.003°2024-12-27 01:19:45.802Z167.653° S
|